Grand Forks AFB, ND

10:28 PM CDT on June 28, 2017 (GMT -0500)
Grand Forks Air Force Base

Weather History for KRDR - March, 2013

Change the Weather History Date:

Thursday, March 7, 2013

  Actual Average Record
Temperature  
Mean Temperature 12 °F -  
Max Temperature 25 °F 22 °F 57 °F (2016)
Min Temperature -2 °F 5 °F -18 °F (2008)
Degree Days  
Heating Degree Days 54    
Moisture  
Dew Point 5 °F    
Average Humidity 81    
Maximum Humidity 86    
Minimum Humidity 73    
Precipitation  
Precipitation 0.00 in - - ()
Sea Level Pressure  
Sea Level Pressure 30.27 in    
Wind  
Wind Speed 4 mph (SE)    
Max Wind Speed 17 mph    
Max Gust Speed 23 mph    
Visibility 8 miles    
Events Snow    
Averages and records for this station are not official NWS values.
T = Trace of Precipitation, MM = Missing Value Source: NWS Daily Summary

Daily Weather History Graph

Daily Weather History Graph

Search for Another Location

Airport or City:

Trip Planner

Search our weather history database for the weather conditions in past years. The results will help you decide how hot, cold, wet, or windy it might be!

Date:

Astronomy

Mar. 07, 2013 Rise Set
Actual Time 6:58 AM CST 6:23 PM CST
Civil Twilight 6:27 AM CST 6:54 PM CST
Nautical Twilight 5:51 AM CST 7:30 PM CST
Astronomical Twilight 5:15 AM CST 8:06 PM CST
Moon 4:15 AM CST (3/7) 1:57 PM CST (3/7)
Length of Visible Light 12h 27m
Length of Day
11h 25m
Waning Crescent, 20% of the Moon is Illuminated
Mar 7
Waning Crescent
Mar 11
New
Mar 19
First Quarter
Mar 27
Full
Apr 2
Last Quarter

Hourly Weather History & Observations

Time (CST) Temp. Windchill Dew Point Humidity Pressure Visibility Wind Dir Wind Speed Gust Speed Precip Events Conditions
12:55 AM -1.8 °F - -6.2 °F 82% 30.33 in 10.0 mi Calm Calm - N/A   Clear
1:24 AM -2.2 °F -10.4 °F -5.8 °F 85% 30.32 in 1.2 mi East 3.5 mph - N/A   Haze
1:26 AM -2.2 °F -12.5 °F -5.8 °F 85% 30.32 in 1.0 mi East 4.6 mph - N/A   Haze
1:29 AM -0.4 °F -8.3 °F -5.8 °F 78% 30.32 in 0.8 mi East 3.5 mph - N/A   Haze
1:31 AM -0.4 °F -10.4 °F -5.8 °F 78% 30.32 in 1.0 mi East 4.6 mph - N/A   Haze
1:34 AM -0.4 °F -10.4 °F -5.8 °F 78% 30.32 in 1.2 mi East 4.6 mph - N/A   Haze
1:36 AM -0.4 °F -8.3 °F -4.0 °F 85% 30.32 in 1.5 mi East 3.5 mph - N/A   Haze
1:37 AM -0.4 °F -8.3 °F -4.0 °F 85% 30.32 in 1.8 mi East 3.5 mph - N/A   Clear
1:39 AM 1.4 °F -6.2 °F -2.2 °F 85% 30.32 in 2.0 mi East 3.5 mph - N/A   Clear
1:41 AM 1.4 °F -6.2 °F -2.2 °F 85% 30.32 in 2.5 mi ESE 3.5 mph - N/A   Clear
1:42 AM 1.4 °F - -2.2 °F 85% 30.32 in 3.0 mi Calm Calm - N/A   Clear
1:55 AM 1.4 °F - -2.7 °F 83% 30.32 in 10.0 mi Calm Calm - N/A   Clear
2:55 AM 5.0 °F - 1.6 °F 86% 30.31 in 10.0 mi Calm Calm - N/A   Clear
3:55 AM 3.9 °F - -0.2 °F 83% 30.29 in 10.0 mi Calm Calm - N/A   Clear
4:55 AM 3.0 °F -4.4 °F -1.1 °F 83% 30.29 in 10.0 mi SE 3.5 mph - N/A   Clear
5:55 AM 3.0 °F - -1.1 °F 83% 30.29 in 10.0 mi Calm Calm - N/A   Clear
6:43 AM 1.4 °F - -2.2 °F 85% 30.29 in 10.0 mi Calm Calm - N/A   Partly Cloudy
6:55 AM 0.9 °F - -3.8 °F 81% 30.30 in 10.0 mi Calm Calm - N/A   Mostly Cloudy
7:45 AM 3.2 °F - -0.4 °F 85% 30.29 in 10.0 mi Calm Calm - N/A   Scattered Clouds
7:55 AM 3.7 °F - -0.4 °F 83% 30.29 in 10.0 mi Calm Calm - N/A   Scattered Clouds
8:55 AM 7.2 °F - 3.6 °F 85% 30.29 in 10.0 mi Calm Calm - N/A   Clear
9:43 AM 8.6 °F -3.7 °F 5.0 °F 85% 30.28 in 10.0 mi SE 8.1 mph - N/A Snow Light Snow
9:55 AM 10.0 °F -1.9 °F 6.6 °F 86% 30.27 in 10.0 mi SE 8.1 mph - 0.00 in Snow Light Snow
9:58 AM 10.4 °F -0.4 °F 6.8 °F 85% 30.27 in 10.0 mi ESE 6.9 mph - N/A   Clear
10:55 AM 12.7 °F 1.4 °F 9.3 °F 86% 30.28 in 10.0 mi SE 8.1 mph - 0.00 in   Clear
11:55 AM 17.6 °F 6.4 °F 11.5 °F 77% 30.26 in 10.0 mi SSE 9.2 mph - N/A   Partly Cloudy
12:55 PM 20.8 °F 6.4 °F 14.4 °F 76% 30.24 in 10.0 mi SSE 17.3 mph - N/A   Partly Cloudy
1:55 PM 23.0 °F 9.6 °F 16.5 °F 76% 30.22 in 10.0 mi SSE 16.1 mph - N/A   Partly Cloudy
2:55 PM 25.5 °F 12.4 °F 18.0 °F 73% 30.20 in 10.0 mi SSE 17.3 mph 23.0 mph N/A   Clear
3:55 PM 25.2 °F 13.9 °F 18.0 °F 74% 30.21 in 10.0 mi SSE 12.7 mph - N/A   Clear
4:55 PM 25.0 °F 14.8 °F 18.0 °F 75% 30.20 in 10.0 mi SE 10.4 mph - N/A   Clear
5:55 PM 23.2 °F 15.0 °F 16.9 °F 77% 30.21 in 10.0 mi SSE 6.9 mph - N/A   Clear
6:55 PM 19.8 °F 9.9 °F 14.4 °F 80% 30.21 in 10.0 mi South 8.1 mph - N/A   Mostly Cloudy
7:32 PM 23.0 °F 13.1 °F 15.8 °F 74% 30.21 in 10.0 mi South 9.2 mph - N/A   Overcast
7:55 PM 23.5 °F 12.4 °F 16.9 °F 76% 30.21 in 10.0 mi South 11.5 mph - N/A   Overcast
8:55 PM 24.6 °F 12.7 °F 18.1 °F 76% 30.20 in 10.0 mi South 13.8 mph - N/A   Overcast
9:55 PM 24.6 °F 13.2 °F 18.5 °F 78% 30.21 in 10.0 mi South 12.7 mph - N/A   Overcast
10:55 PM 24.6 °F 13.2 °F 18.5 °F 78% 30.20 in 10.0 mi South 12.7 mph - N/A   Overcast
11:55 PM 24.3 °F 12.7 °F 19.6 °F 82% 30.20 in 10.0 mi SSW 12.7 mph - N/A   Overcast